TimePST,TemperatureF,Dew PointF,Humidity,Sea Level PressureIn,VisibilityMPH,Wind Direction,Wind SpeedMPH,Gust SpeedMPH,PrecipitationIn,Events,Conditions,WindDirDegrees,DateUTC
12:56 AM,28.9,16.0,58,30.30,10.0,WSW,3.5,-,N/A,,Clear,250,2013-02-12 08:56:00
1:56 AM,26.1,15.1,63,30.30,10.0,West,3.5,-,N/A,,Clear,270,2013-02-12 09:56:00
2:56 AM,27.0,16.0,63,30.29,10.0,Calm,Calm,-,N/A,,Clear,0,2013-02-12 10:56:00
3:56 AM,21.0,10.9,65,30.32,10.0,NNW,3.5,-,N/A,,Clear,330,2013-02-12 11:56:00
4:56 AM,21.9,12.9,68,30.34,10.0,Calm,Calm,-,N/A,,Clear,0,2013-02-12 12:56:00
5:56 AM,19.9,12.0,71,30.37,10.0,WNW,4.6,-,N/A,,Clear,300,2013-02-12 13:56:00
6:56 AM,19.9,12.0,71,30.40,10.0,Calm,Calm,-,N/A,,Clear,0,2013-02-12 14:56:00
7:56 AM,26.1,15.1,63,30.43,10.0,Calm,Calm,-,N/A,,Clear,0,2013-02-12 15:56:00
8:56 AM,34.0,16.0,48,30.43,10.0,Calm,Calm,-,N/A,,Clear,0,2013-02-12 16:56:00
9:56 AM,44.1,12.0,27,30.42,10.0,Calm,Calm,-,N/A,,Clear,0,2013-02-12 17:56:00
10:56 AM,48.0,6.1,18,30.40,10.0,Calm,Calm,-,N/A,,Clear,0,2013-02-12 18:56:00
11:56 AM,53.1,7.0,16,30.37,10.0,Variable,3.5,-,N/A,,Clear,0,2013-02-12 19:56:00
12:56 PM,54.0,5.0,14,30.33,10.0,Variable,4.6,-,N/A,,Clear,0,2013-02-12 20:56:00
1:56 PM,55.9,6.1,14,30.31,10.0,SSE,4.6,-,N/A,,Clear,150,2013-02-12 21:56:00
2:56 PM,57.0,6.1,13,30.30,10.0,Calm,Calm,-,N/A,,Clear,0,2013-02-12 22:56:00
3:56 PM,55.9,7.0,14,30.30,10.0,Calm,Calm,-,N/A,,Clear,0,2013-02-12 23:56:00
4:56 PM,55.9,8.1,15,30.29,10.0,ESE,3.5,-,N/A,,Clear,120,2013-02-13 00:56:00
5:56 PM,50.0,10.0,20,30.31,10.0,ENE,3.5,-,N/A,,Clear,70,2013-02-13 01:56:00
6:56 PM,44.1,12.0,27,30.33,10.0,NNE,5.8,-,N/A,,Clear,30,2013-02-13 02:56:00
7:56 PM,39.9,16.0,38,30.34,10.0,West,6.9,-,N/A,,Clear,260,2013-02-13 03:56:00
8:56 PM,36.0,19.0,50,30.35,10.0,West,6.9,-,N/A,,Clear,260,2013-02-13 04:56:00
9:56 PM,30.9,18.0,59,30.35,10.0,NNW,4.6,-,N/A,,Clear,340,2013-02-13 05:56:00
10:56 PM,33.1,19.9,59,30.34,10.0,West,9.2,-,N/A,,Clear,280,2013-02-13 06:56:00
11:56 PM,32.0,19.9,61,30.33,10.0,WNW,5.8,-,N/A,,Clear,300,2013-02-13 07:56:00